Leeuwarden, Netherlands

11:46 PM CET on March 25, 2017 (GMT +0100)
Leeuwarden Air Base

Weather History for EHLW - March, 2013

Change the Weather History Date:

Sunday, March 10, 2013

  Actual Average Record
Temperature  
Mean Temperature 30 °F -  
Max Temperature 33 °F 48 °F 58 °F (2014)
Min Temperature 28 °F 36 °F 28 °F (2013)
Degree Days  
Heating Degree Days 34    
Moisture  
Dew Point 26 °F    
Average Humidity 83    
Maximum Humidity 100    
Minimum Humidity 64    
Precipitation  
Precipitation 0.00 in - - ()
Sea Level Pressure  
Sea Level Pressure 29.69 in    
Wind  
Wind Speed 21 mph ()    
Max Wind Speed 26 mph    
Max Gust Speed 37 mph    
Visibility 6.2 miles    
Events Snow    
Averages and records for this station are not official NWS values.
T = Trace of Precipitation, MM = Missing Value Source: Averaged Metar Reports

Daily Weather History Graph

Daily Weather History Graph

Search for Another Location

Airport or City:

Trip Planner

Search our weather history database for the weather conditions in past years. The results will help you decide how hot, cold, wet, or windy it might be!

Date:

Astronomy

Mar. 10, 2013 Rise Set
Actual Time 7:03 AM CET 6:32 PM CET
Civil Twilight 6:28 AM CET 7:06 PM CET
Nautical Twilight 5:48 AM CET 7:47 PM CET
Astronomical Twilight 5:07 AM CET 8:28 PM CET
Moon 6:01 AM CET (3/10) 5:18 PM CET (3/10)
Length of Visible Light 12h 37m
Length of Day
11h 28m
Waning Crescent, 2% of the Moon is Illuminated
Mar 10
Waning Crescent
Mar 11
New
Mar 19
First Quarter
Mar 27
Full
Apr 3
Last Quarter

Hourly Weather History & Observations

Time (CET) Temp. Windchill Dew Point Humidity Pressure Visibility Wind Dir Wind Speed Gust Speed Precip Events Conditions
12:25 AM 32.0 °F 20.5 °F 32.0 °F 100% 29.56 in 4.3 mi ENE 18.4 mph - N/A   Mostly Cloudy
12:43 AM 32.0 °F 19.5 °F 32.0 °F 100% 29.56 in 5.0 mi ENE 21.9 mph - N/A   Overcast
12:44 AM 32.0 °F 19.5 °F 32.0 °F 100% 29.59 in 5.0 mi ENE 21.9 mph - N/A   Overcast
12:55 AM 32.0 °F 19.2 °F 32.0 °F 100% 29.59 in 5.6 mi ENE 23.0 mph - N/A   Overcast
1:00 AM 32 °F - 32 °F 98% 29.59 in 6 mi ENE 22.4 mph - - Snow Snow
1:25 AM 32.0 °F 19.2 °F 32.0 °F 100% 29.59 in 6.2 mi ENE 23.0 mph - N/A   Mostly Cloudy
1:33 AM 32.0 °F 19.5 °F 32.0 °F 100% 29.59 in 6.2 mi ENE 21.9 mph - N/A   Overcast
1:37 AM 32.0 °F 19.8 °F 32.0 °F 100% 29.59 in 6.2 mi ENE 20.7 mph - N/A   Overcast
1:48 AM 32.0 °F 19.2 °F 32.0 °F 100% 29.59 in 6.2 mi ENE 23.0 mph - N/A   Overcast
1:55 AM 32.0 °F 19.2 °F 32.0 °F 100% 29.59 in 6.2 mi ENE 23.0 mph - N/A   Overcast
2:09 AM 32.0 °F 18.9 °F 32.0 °F 100% 29.59 in 4.3 mi ENE 24.2 mph - N/A   Overcast
2:25 AM 32.0 °F 19.5 °F 32.0 °F 100% 29.59 in 5.0 mi ENE 21.9 mph - N/A   Mostly Cloudy
2:42 AM 32.0 °F 19.8 °F 32.0 °F 100% 29.59 in 5.0 mi ENE 20.7 mph - N/A   Mostly Cloudy
2:43 AM 32.0 °F 19.5 °F 32.0 °F 100% 29.59 in 4.3 mi ENE 21.9 mph - N/A   Mostly Cloudy
2:55 AM 32.0 °F 19.8 °F 32.0 °F 100% 29.59 in 3.7 mi ENE 20.7 mph - N/A Snow Light Snow Grains
3:25 AM 32.0 °F 19.5 °F 32.0 °F 100% 29.59 in 5.6 mi ENE 21.9 mph - N/A   Overcast
3:26 AM 32.0 °F 19.2 °F 32.0 °F 100% 29.59 in 5.6 mi ENE 23.0 mph - N/A   Overcast
3:55 AM 32.0 °F 19.2 °F 32.0 °F 100% 29.59 in 6.2 mi ENE 23.0 mph - N/A   Overcast
4:25 AM 32.0 °F 19.5 °F 32.0 °F 100% 29.59 in 6.2 mi ENE 21.9 mph - N/A   Overcast
4:55 AM 32.0 °F 19.2 °F 32.0 °F 100% 29.59 in 6.2 mi ENE 23.0 mph - N/A   Overcast
5:20 AM 32.0 °F 19.2 °F 30.2 °F 93% 29.59 in 3.7 mi ENE 23.0 mph - N/A   Overcast
5:25 AM 32.0 °F 19.2 °F 32.0 °F 100% 29.59 in 6.2 mi ENE 23.0 mph - N/A   Overcast
5:38 AM 32.0 °F 18.9 °F 30.2 °F 93% 29.59 in 6.2 mi ENE 24.2 mph - N/A   Overcast
5:55 AM 32.0 °F 19.2 °F 30.2 °F 93% 29.59 in 6.2 mi ENE 23.0 mph - N/A   Overcast
6:25 AM 32.0 °F 18.4 °F 28.4 °F 87% 29.59 in 6.2 mi ENE 26.5 mph - N/A   Overcast
6:55 AM 32.0 °F 18.6 °F 28.4 °F 87% 29.62 in 6.2 mi ENE 25.3 mph - N/A   Overcast
6:59 AM 32.0 °F 18.6 °F 26.6 °F 80% 29.62 in 6.2 mi ENE 25.3 mph 36.8 mph N/A   Overcast
7:00 AM 31 °F - 27 °F 81% 29.63 in 9 mi ENE 24.6 mph - -   Partly Cloudy
7:06 AM 32.0 °F 18.9 °F 26.6 °F 80% 29.62 in 6.2 mi ENE 24.2 mph 36.8 mph N/A   Overcast
7:10 AM 30.2 °F 16.5 °F 26.6 °F 86% 29.62 in 6.2 mi ENE 24.2 mph - N/A   Overcast
7:16 AM 30.2 °F 16.8 °F 26.6 °F 86% 29.62 in 6.2 mi ENE 23.0 mph - N/A   Overcast
7:25 AM 30.2 °F 17.1 °F 26.6 °F 86% 29.62 in 6.2 mi ENE 21.9 mph - N/A   Mostly Cloudy
7:29 AM 32.0 °F 19.2 °F 26.6 °F 80% 29.62 in 6.2 mi ENE 23.0 mph - N/A   Mostly Cloudy
7:33 AM 30.2 °F 16.5 °F 26.6 °F 86% 29.62 in 6.2 mi ENE 24.2 mph - N/A   Overcast
7:46 AM 32.0 °F 18.9 °F 26.6 °F 80% 29.62 in 6.2 mi ENE 24.2 mph - N/A   Overcast
7:50 AM 32.0 °F 18.9 °F 26.6 °F 80% 29.62 in 6.2 mi ENE 24.2 mph - N/A   Overcast
7:55 AM 32.0 °F 18.6 °F 26.6 °F 80% 29.62 in 6.2 mi ENE 25.3 mph - N/A   Overcast
8:00 AM 32.0 °F 18.9 °F 26.6 °F 80% 29.62 in 6.2 mi ENE 24.2 mph - N/A   Overcast
8:25 AM 32.0 °F 19.5 °F 26.6 °F 80% 29.62 in 6.2 mi ENE 21.9 mph - N/A   Overcast
8:55 AM 32.0 °F 19.2 °F 26.6 °F 80% 29.65 in 6.2 mi ENE 23.0 mph - N/A   Overcast
9:25 AM 32.0 °F 19.2 °F 26.6 °F 80% 29.65 in 6.2 mi ENE 23.0 mph - N/A   Overcast
9:55 AM 32.0 °F 19.2 °F 26.6 °F 80% 29.65 in 6.2 mi ENE 23.0 mph - N/A   Overcast
10:25 AM 32.0 °F 19.5 °F 26.6 °F 80% 29.65 in 6.2 mi ENE 21.9 mph - N/A   Overcast
10:55 AM 32.0 °F 19.2 °F 26.6 °F 80% 29.68 in 6.2 mi ENE 23.0 mph - N/A   Overcast
11:25 AM 32.0 °F 18.9 °F 26.6 °F 80% 29.68 in 6.2 mi ENE 24.2 mph - N/A   Overcast
11:55 AM 32.0 °F 18.9 °F 24.8 °F 75% 29.68 in 6.2 mi ENE 24.2 mph - N/A   Overcast
12:25 PM 32.0 °F 18.9 °F 24.8 °F 75% 29.68 in 6.2 mi ENE 24.2 mph - N/A   Overcast
12:55 PM 32.0 °F 19.2 °F 24.8 °F 75% 29.68 in 6.2 mi ENE 23.0 mph 34.5 mph N/A   Overcast
1:00 PM 33 °F - 25 °F 64% 29.70 in 15 mi ENE 24.6 mph - -   Partly Cloudy
1:04 PM 32.0 °F 19.2 °F 24.8 °F 75% 29.68 in 6.2 mi ENE 23.0 mph - N/A   Mostly Cloudy
1:08 PM 32.0 °F 18.9 °F 24.8 °F 75% 29.68 in 6.2 mi ENE 24.2 mph - N/A   Mostly Cloudy
1:15 PM 32.0 °F 18.6 °F 24.8 °F 75% 29.68 in 6.2 mi ENE 25.3 mph - N/A   Mostly Cloudy
1:25 PM 32.0 °F 18.6 °F 26.6 °F 80% 29.68 in 6.2 mi ENE 25.3 mph - N/A   Overcast
1:35 PM 33.8 °F 21.0 °F 24.8 °F 70% 29.68 in 6.2 mi ENE 25.3 mph - N/A   Overcast
1:46 PM 33.8 °F 20.8 °F 24.8 °F 70% 29.68 in 6.2 mi ENE 26.5 mph - N/A   Overcast
1:55 PM 32.0 °F 18.9 °F 24.8 °F 75% 29.68 in 6.2 mi ENE 24.2 mph - N/A   Overcast
2:25 PM 32.0 °F 19.8 °F 24.8 °F 75% 29.68 in 6.2 mi ENE 20.7 mph - N/A   Overcast
2:44 PM 32.0 °F 19.8 °F 24.8 °F 75% 29.71 in 6.2 mi ENE 20.7 mph - N/A   Overcast
2:48 PM 32.0 °F 19.8 °F 24.8 °F 75% 29.71 in 6.2 mi ENE 20.7 mph - N/A   Overcast
2:55 PM 32.0 °F 19.8 °F 24.8 °F 75% 29.71 in 6.2 mi ENE 20.7 mph - N/A   Overcast
2:59 PM 32.0 °F 19.8 °F 24.8 °F 75% 29.71 in 6.2 mi ENE 20.7 mph - N/A   Mostly Cloudy
3:03 PM 32.0 °F 19.8 °F 24.8 °F 75% 29.71 in 6.2 mi ENE 20.7 mph - N/A   Mostly Cloudy
3:25 PM 32.0 °F 19.2 °F 24.8 °F 75% 29.71 in 6.2 mi ENE 23.0 mph - N/A   Mostly Cloudy
3:49 PM 32.0 °F 19.8 °F 24.8 °F 75% 29.71 in 6.2 mi ENE 20.7 mph - N/A   Overcast
3:55 PM 32.0 °F 19.8 °F 24.8 °F 75% 29.71 in 6.2 mi ENE 20.7 mph - N/A   Mostly Cloudy
3:59 PM 32.0 °F 19.5 °F 24.8 °F 75% 29.71 in 6.2 mi ENE 21.9 mph - N/A   Mostly Cloudy
4:11 PM 32.0 °F 20.1 °F 23.0 °F 69% 29.71 in 6.2 mi ENE 19.6 mph - N/A   Mostly Cloudy
4:16 PM 32.0 °F 20.1 °F 24.8 °F 75% 29.71 in 6.2 mi ENE 19.6 mph 31.1 mph N/A   Mostly Cloudy
4:25 PM 32.0 °F 19.2 °F 24.8 °F 75% 29.71 in 6.2 mi ENE 23.0 mph - N/A   Overcast
4:55 PM 32.0 °F 19.5 °F 24.8 °F 75% 29.71 in 6.2 mi ENE 21.9 mph - N/A   Mostly Cloudy
5:04 PM 32.0 °F 18.9 °F 24.8 °F 75% 29.71 in 6.2 mi ENE 24.2 mph - N/A   Mostly Cloudy
5:08 PM 30.2 °F 16.8 °F 24.8 °F 80% 29.71 in 6.2 mi ENE 23.0 mph - N/A   Mostly Cloudy
5:17 PM 30.2 °F 16.5 °F 24.8 °F 80% 29.74 in 6.2 mi NE 24.2 mph - N/A   Overcast
5:21 PM 30.2 °F 16.8 °F 24.8 °F 80% 29.74 in 6.2 mi NE 23.0 mph - N/A   Overcast
5:25 PM 30.2 °F 17.1 °F 24.8 °F 80% 29.74 in 6.2 mi ENE 21.9 mph - N/A   Mostly Cloudy
5:30 PM 30.2 °F 17.4 °F 24.8 °F 80% 29.74 in 6.2 mi ENE 20.7 mph - N/A   Overcast
5:44 PM 30.2 °F 17.1 °F 24.8 °F 80% 29.74 in 6.2 mi ENE 21.9 mph - N/A   Overcast
5:55 PM 30.2 °F 16.8 °F 24.8 °F 80% 29.74 in 6.2 mi ENE 23.0 mph - N/A   Mostly Cloudy
5:59 PM 30.2 °F 16.8 °F 24.8 °F 80% 29.74 in 6.2 mi ENE 23.0 mph - N/A   Overcast
6:11 PM 30.2 °F 17.4 °F 24.8 °F 80% 29.74 in 4.3 mi ENE 20.7 mph - N/A   Haze
6:25 PM 30.2 °F 17.1 °F 24.8 °F 80% 29.74 in 6.2 mi ENE 21.9 mph - N/A   Overcast
6:32 PM 30.2 °F 17.4 °F 24.8 °F 80% 29.74 in 6.2 mi ENE 20.7 mph - N/A   Overcast
6:41 PM 30.2 °F 17.1 °F 24.8 °F 80% 29.74 in 6.2 mi ENE 21.9 mph - N/A   Overcast
6:50 PM 30.2 °F 17.4 °F 24.8 °F 80% 29.77 in 6.2 mi ENE 20.7 mph - N/A   Overcast
6:55 PM 30.2 °F 17.8 °F 24.8 °F 80% 29.77 in 6.2 mi ENE 19.6 mph - N/A   Mostly Cloudy
7:00 PM 30 °F - 24 °F 70% 29.78 in 16 mi ENE 20.1 mph - - Snow Snow Grains
7:04 PM 30.2 °F 17.4 °F 24.8 °F 80% 29.77 in 6.2 mi ENE 20.7 mph - N/A   Overcast
7:25 PM 30.2 °F 17.8 °F 23.0 °F 75% 29.77 in 6.2 mi ENE 19.6 mph - N/A Snow Light Snow
7:51 PM 30.2 °F 17.1 °F 23.0 °F 75% 29.77 in 6.2 mi ENE 21.9 mph - N/A   Overcast
7:55 PM 30.2 °F 16.5 °F 23.0 °F 75% 29.77 in 6.2 mi ENE 24.2 mph - N/A   Overcast
8:07 PM 30.2 °F 16.8 °F 23.0 °F 75% 29.77 in 6.2 mi ENE 23.0 mph - N/A   Overcast
8:18 PM 30.2 °F 17.4 °F 23.0 °F 75% 29.77 in 6.2 mi ENE 20.7 mph - N/A   Mostly Cloudy
8:25 PM 30.2 °F 16.5 °F 24.8 °F 80% 29.77 in 6.2 mi ENE 24.2 mph - N/A Snow Light Snow
8:38 PM 28.4 °F 14.4 °F 24.8 °F 86% 29.77 in 6.2 mi ENE 23.0 mph - N/A Snow Light Snow
8:55 PM 28.4 °F 14.4 °F 24.8 °F 86% 29.80 in 6.2 mi ENE 23.0 mph - N/A Snow Light Snow
8:59 PM 28.4 °F 14.4 °F 24.8 °F 86% 29.80 in 6.2 mi ENE 23.0 mph - N/A Snow Light Snow
9:25 PM 28.4 °F 15.4 °F 23.0 °F 80% 29.80 in 6.2 mi ENE 19.6 mph - N/A   Overcast
9:31 PM 28.4 °F 15.4 °F 23.0 °F 80% 29.80 in 6.2 mi ENE 19.6 mph - N/A   Overcast
9:35 PM 28.4 °F 15.4 °F 23.0 °F 80% 29.80 in 6.2 mi ENE 19.6 mph - N/A   Overcast
9:47 PM 28.4 °F 15.4 °F 23.0 °F 80% 29.80 in 6.2 mi ENE 19.6 mph - N/A   Overcast
9:55 PM 28.4 °F 15.4 °F 23.0 °F 80% 29.80 in 6.2 mi ENE 19.6 mph - N/A   Overcast
10:02 PM 28.4 °F 15.1 °F 23.0 °F 80% 29.80 in 6.2 mi ENE 20.7 mph - N/A   Overcast
10:08 PM 28.4 °F 14.7 °F 23.0 °F 80% 29.80 in 6.2 mi ENE 21.9 mph - N/A   Overcast
10:12 PM 28.4 °F 15.1 °F 23.0 °F 80% 29.80 in 6.2 mi ENE 20.7 mph - N/A   Overcast
10:25 PM 28.4 °F 15.1 °F 23.0 °F 80% 29.80 in 6.2 mi ENE 20.7 mph - N/A   Overcast
10:46 PM 28.4 °F 15.4 °F 23.0 °F 80% 29.80 in 6.2 mi ENE 19.6 mph - N/A   Overcast
10:55 PM 28.4 °F 14.7 °F 23.0 °F 80% 29.80 in 6.2 mi ENE 21.9 mph - N/A   Overcast
11:02 PM 28.4 °F 15.1 °F 23.0 °F 80% 29.80 in 6.2 mi ENE 20.7 mph - N/A   Overcast
11:16 PM 28.4 °F 15.1 °F 23.0 °F 80% 29.80 in 6.2 mi ENE 20.7 mph - N/A   Mostly Cloudy
11:25 PM 28.4 °F 15.1 °F 23.0 °F 80% 29.80 in 6.2 mi ENE 20.7 mph - N/A   Overcast
11:55 PM 28.4 °F 15.8 °F 23.0 °F 80% 29.80 in 6.2 mi ENE 18.4 mph - N/A   Overcast